{"data":{"norad_id":38245,"epoch":"2026-05-25T03:58:08.464800Z","epoch_age_seconds":57149,"freshness":"FRESH","line1":"1 38245U 12016A   26145.16537575  .00000124  00000+0  00000+0 0  9994","line2":"2 38245   0.0890  91.0255 0002549 348.9400 269.9307  1.00270429 45371","mean_motion":1.00270429,"eccentricity":0.0002549,"inclination_deg":0.089,"raan_deg":91.0255,"arg_perigee_deg":348.94,"mean_anomaly_deg":269.9307,"bstar":0,"rev_number":4537,"period_min":1436.1163249835,"perigee_km":35776.227214424,"apogee_km":35797.722988574,"semimajor_km":42165.112101499,"source":"CELESTRAK","updated_at":"2026-05-25T13:38:13.909849Z"}}